Location: Unspecified
(51.0950°N, 12.9690°E)
Time: 14:23:34
(UTC+00:00)

CUBEBUG 2 - Pass Details

Date: 28 April 2024
Orbit: 570 x 668 km, 97.8° (Epoch: 25 May)

Event Time Altitude Azimuth Distance (km) Brightness Sun altitude
Rises 00:03:26 0° 30° (NNE) 2,806 ? -23.5°
Reaches altitude 10° 00:06:38 10° 58° (ENE) 1,914 ? -23.3°
Maximum altitude 00:08:42 14° 88° (E) 1,701 ? -23.2°
Enters shadow 00:10:17 11° 112° (ESE) 1,833 ? -23.2°
